Temperature
13 12 11 12 13 13 14 14 14 13 11 11 10 11 10 9 8 8 8 7 6 6 5 5 5 4 4 4 4 4 5 5 5 5 5 5 5 5 5 5 5 5 5 4
12 11 12 13 13 13 13 13 13 12 11 11 10 10 10 9 8 8 8 7 7 6 5 4 4 4 4 4 4 4 4 4 4 4 4 4 4 4 4 4 4 4 4 4
11 11 12 12 12 12 12 12 12 11 10 10 9 9 10 9 9 8 8 7 7 6 5 4 3 3 3 3 3 3 3 3 4 4 4 4 3 3 3 3 3 3 3 3
11 11 11 11 11 11 11 12 11 10 9 8 9 7 10 9 8 7 7 7 6 6 5 4 3 3 3 3 3 3 3 3 3 3 3 3 3 3 2 2 2 2 2 2
11 10 10 10 11 11 10 10 10 10 9 9 9 8 8 9 8 7 7 6 6 5 5 4 3 3 2 2 2 2 2 2 2 2 2 2 2 2 2 2 2 2 2 2
9 9 10 10 9 10 9 9 9 9 8 7 8 8 8 8 8 7 7 6 6 5 4 3 3 2 2 1 1 1 1 2 2 2 2 2 2 1 1 1 1 1 1 1
9 8 8 8 8 8 8 8 7 7 6 7 9 8 8 8 8 7 6 6 5 5 4 3 2 1 1 1 1 1 1 1 1 1 1 1 1 1 1 1 1 0 0 0
8 7 7 7 8 7 7 8 7 7 7 7 7 7 7 7 6 7 6 5 5 4 3 2 2 1 1 1 0 0 0 0 0 0 0 0 0 0 0 -0 -0 -0 -0 -0
8 8 7 7 7 8 7 7 8 7 7 7 7 7 6 5 5 5 5 4 4 3 3 2 1 1 0 0 0 -0 -0 -0 -0 -0 -0 -0 -0 -1 -1 -1 -1 -1 -1 -1
9 7 6 6 6 6 7 7 6 6 6 6 8 7 6 4 4 4 3 3 3 3 2 1 1 0 0 -0 -0 -1 -1 -1 -1 -1 -1 -1 -1 -1 -1 -1 -2 -2 -2 -2
8 6 5 5 5 5 6 6 6 6 6 6 6 7 7 5 5 4 3 3 3 2 2 1 0 -0 -1 -1 -1 -1 -1 -1 -1 -1 -1 -1 -1 -2 -2 -2 -2 -2 -2 -2
7 6 5 5 5 5 6 6 6 5 5 6 5 5 5 5 5 4 3 3 2 2 1 1 -0 -1 -1 -1 -2 -2 -2 -2 -2 -2 -2 -2 -2 -2 -2 -3 -3 -3 -3 -3
6 5 4 5 4 4 4 5 6 5 5 4 4 5 4 4 4 4 3 3 2 1 1 0 -1 -1 -2 -2 -2 -2 -2 -2 -2 -2 -2 -3 -3 -3 -3 -3 -3 -3 -4 -4
5 4 4 5 6 4 3 4 5 4 3 3 4 5 4 3 2 3 3 2 1 1 0 -1 -1 -2 -2 -2 -2 -2 -3 -3 -3 -3 -3 -3 -3 -3 -3 -3 -4 -4 -4 -4
4 3 4 5 5 5 4 4 4 4 4 4 5 5 4 3 2 2 2 1 0 -0 -1 -1 -2 -2 -2 -3 -3 -3 -3 -3 -3 -3 -3 -3 -3 -4 -4 -4 -4 -4 -4 -5
3 3 3 3 4 4 3 4 4 4 4 4 4 4 4 3 3 2 2 1 -0 -1 -1 -2 -2 -3 -3 -3 -3 -3 -4 -4 -4 -4 -4 -4 -4 -4 -4 -4 -5 -5 -5 -5
2 2 2 2 3 3 2 3 3 3 3 3 3 3 2 2 1 1 1 0 -0 -1 -1 -2 -3 -3 -3 -4 -4 -4 -4 -4 -4 -4 -4 -4 -5 -5 -5 -5 -5 -5 -5 -5
2 1 1 1 2 1 3 3 3 3 2 2 2 1 2 1 1 1 0 -0 -1 -2 -2 -2 -3 -3 -4 -4 -4 -4 -4 -4 -5 -5 -5 -5 -5 -5 -5 -5 -5 -6 -6 -6
1 1 1 1 1 2 2 2 2 1 1 1 1 1 0 -0 -1 -1 -1 -1 -2 -2 -3 -3 -3 -4 -4 -5 -5 -5 -5 -5 -5 -5 -5 -5 -5 -6 -6 -6 -6 -6 -6 -6
0 0 0 1 1 2 2 1 1 1 0 0 0 -1 -1 -1 -2 -3 -2 -2 -3 -3 -4 -4 -4 -4 -5 -5 -5 -5 -5 -5 -5 -6 -6 -6 -6 -6 -6 -6 -7 -7 -7 -7
-1 -1 -0 0 0 1 0 -0 1 0 0 -1 -0 -1 -1 -2 -3 -3 -3 -3 -4 -4 -4 -4 -5 -5 -5 -5 -6 -6 -6 -6 -6 -6 -6 -6 -7 -7 -7 -7 -7 -7 -8 -8
-0 -0 -1 -0 -0 0 -1 -1 -1 -1 -1 -1 -2 -2 -2 -3 -4 -4 -4 -4 -5 -5 -5 -5 -5 -5 -6 -6 -6 -6 -6 -6 -7 -7 -7 -7 -7 -7 -7 -8 -8 -8 -8 -8
0 0 0 -0 -0 -1 -1 -1 -1 -1 -2 -2 -3 -3 -3 -4 -5 -5 -5 -6 -6 -6 -6 -6 -6 -6 -6 -7 -7 -7 -7 -7 -7 -7 -7 -7 -8 -8 -8 -8 -8 -9 -9 -9
-1 -1 -1 -2 -2 -2 -2 -2 -2 -2 -3 -3 -3 -4 -4 -5 -5 -6 -6 -6 -6 -7 -7 -7 -7 -7 -7 -7 -8 -8 -8 -8 -8 -8 -8 -8 -8 -8 -9 -9 -9 -9 -9 -9
-1 -2 -2 -3 -3 -3 -3 -3 -3 -3 -3 -4 -4 -5 -5 -5 -6 -7 -7 -7 -7 -7 -7 -7 -7 -8 -8 -8 -8 -8 -8 -8 -8 -8 -9 -9 -9 -9 -9 -9 -10 -10 -10 -10
-3 -3 -3 -3 -3 -3 -4 -4 -4 -4 -5 -5 -5 -6 -6 -6 -7 -7 -7 -7 -8 -8 -8 -8 -8 -8 -8 -8 -8 -9 -9 -9 -9 -9 -9 -9 -10 -10 -10 -10 -10 -10 -10 -10
Wind_Speed
5 4 6 7 8 7 6 7 7 1 3 5 9 9 7 8 8 7 7 8 7 7 6 6 5 5 5 4 4 3 3 2 2 1 1 1 2 2 3 5 6 8 8 8
4 7 6 4 4 7 8 8 6 1 2 4 7 10 7 9 10 8 8 8 8 7 7 7 6 5 4 4 3 3 2 2 2 1 1 1 1 1 1 3 5 7 8 8
7 2 2 4 4 6 8 7 6 2 1 4 6 7 7 6 7 7 6 6 6 7 8 8 7 5 5 4 3 2 2 2 2 2 2 1 1 1 1 2 2 5 6 7
6 3 2 4 5 5 6 3 3 2 1 4 4 5 5 7 8 8 7 5 5 6 6 8 7 7 5 4 3 3 2 2 2 2 2 1 1 1 1 1 1 2 5 6
3 2 3 4 3 3 1 3 2 4 5 5 5 5 6 5 6 8 7 6 5 5 6 7 7 7 5 5 4 3 3 2 2 2 1 1 1 0 1 1 1 1 3 4
2 1 0 1 2 0 2 1 1 2 3 6 7 7 6 4 6 6 6 5 5 5 6 6 6 6 5 5 4 3 3 2 2 2 1 1 1 0 1 1 1 1 1 2
4 3 2 1 2 1 1 1 0 1 4 7 3 5 5 1 3 5 6 5 5 5 6 6 6 6 5 5 4 4 3 2 2 2 1 1 0 0 1 1 1 1 1 2
5 5 7 4 3 3 5 4 4 5 5 4 2 6 3 3 5 6 6 5 5 5 5 5 6 5 5 5 5 4 3 3 2 2 1 1 0 0 1 1 1 1 1 1
4 3 2 2 1 1 4 5 2 1 4 4 6 4 1 4 4 5 5 5 4 4 5 5 5 4 5 5 4 4 4 3 2 2 1 1 0 1 1 1 1 1 1 2
3 2 2 2 0 3 2 1 2 3 4 6 6 6 5 6 6 5 4 4 4 4 4 4 4 4 4 3 3 3 3 3 2 1 1 1 0 1 1 2 2 2 2 2
3 2 2 2 7 7 4 3 4 4 4 4 5 4 0 6 7 6 5 5 5 5 4 4 4 3 3 2 2 2 2 2 2 1 1 1 1 1 2 2 2 2 2 2
2 1 4 4 1 2 4 6 6 5 6 5 4 5 2 4 5 4 4 5 5 5 4 4 4 3 3 2 2 2 1 1 1 1 1 1 1 1 2 2 3 2 3 3
1 3 2 1 1 1 4 6 6 4 2 4 5 5 1 3 4 3 4 5 5 5 4 4 4 3 3 2 2 1 1 1 1 1 1 2 2 2 2 3 2 3 3 3
2 3 6 7 3 4 5 6 7 6 5 6 8 7 3 2 2 2 3 4 4 4 4 4 3 3 2 2 1 1 1 1 1 1 1 2 2 2 2 3 2 3 3 3
1 4 6 7 6 3 6 8 9 11 11 8 8 7 5 5 4 3 3 4 3 3 3 3 3 2 2 2 1 1 1 1 1 1 2 2 2 2 2 3 2 3 3 4
2 4 4 6 6 5 7 9 11 12 12 12 10 8 2 2 2 2 3 4 3 3 3 2 2 2 2 1 1 1 1 1 1 2 2 2 2 2 2 2 2 3 3 4
4 3 3 5 2 3 8 9 10 7 7 7 10 7 1 0 1 2 2 3 3 2 2 2 2 1 1 1 0 1 0 1 1 1 1 1 2 2 3 3 3 3 4 4
4 3 3 3 1 8 6 1 4 6 6 5 3 1 1 2 1 1 2 3 2 1 1 1 1 0 0 0 1 1 1 1 1 1 1 2 2 3 3 3 3 4 4 4
4 5 4 3 5 8 3 2 2 4 4 3 4 1 2 4 3 2 3 4 2 1 1 1 1 0 1 1 1 1 1 1 1 1 2 2 3 3 3 3 4 4 4 5
2 3 4 4 5 6 3 1 1 2 4 1 2 2 2 3 1 2 2 4 3 3 2 2 2 2 1 1 2 1 0 1 2 2 3 3 3 3 3 4 4 4 4 5
4 5 7 7 7 6 1 1 2 3 4 1 1 2 3 1 2 2 4 4 3 3 3 3 3 2 1 1 2 1 1 2 2 2 3 3 3 3 3 3 4 4 5 5
7 6 7 6 7 7 2 3 3 2 1 2 3 3 3 3 3 4 3 3 3 3 3 3 3 2 2 2 2 1 2 2 2 2 3 3 3 3 4 3 4 4 4 5
5 5 3 5 4 1 3 3 1 2 2 2 2 3 5 4 2 2 3 3 3 3 3 3 3 3 3 2 2 1 2 2 2 3 3 3 4 4 4 3 4 4 3 4
2 1 1 2 1 1 2 2 3 3 3 3 3 3 4 3 2 2 2 2 3 3 3 3 3 3 3 3 2 2 2 2 2 3 3 3 3 4 3 4 3 3 4 4
1 2 1 3 1 0 1 2 3 4 4 4 4 4 3 3 2 1 1 1 1 2 2 2 2 2 2 3 2 3 2 3 3 3 4 4 4 4 4 4 3 4 3 4
1 2 3 3 2 2 1 2 4 4 3 3 3 3 3 2 2 1 1 1 1 1 2 2 2 2 2 2 2 2 2 2 2 3 4 3 4 4 4 4 5 7 7 10
Wind_Direction
186 211 214 212 217 259 292 272 263 274 152 212 238 246 210 180 192 201 191 182 177 171 155 144 139 128 117 112 111 110 95 68 53 62 76 70 53 41 38 38 35 29 22 14
194 231 237 251 238 255 266 272 276 354 137 246 262 259 228 193 196 198 192 185 179 166 157 154 148 141 138 137 132 127 114 98 66 42 48 92 102 81 74 39 35 27 19 15
216 230 225 233 241 248 252 252 263 262 300 252 280 277 219 192 183 185 187 179 170 174 171 166 162 157 154 153 152 151 132 102 80 54 47 57 75 55 39 33 34 23 15 13
241 221 233 233 233 234 255 268 274 265 228 248 201 277 238 190 183 187 190 188 179 170 167 167 166 164 165 159 150 141 131 111 98 88 77 82 98 57 9 46 29 18 15 9
234 168 203 227 244 243 299 351 283 252 244 272 224 241 271 173 187 199 192 189 179 167 161 163 164 164 159 149 146 141 127 114 103 90 86 53 49 66 22 37 23 6 9 7
252 8 308 338 15 335 113 11 332 279 247 254 223 214 263 200 193 182 182 176 170 161 154 150 148 145 144 141 139 139 137 128 114 107 87 92 64 38 11 359 342 332 339 353
217 186 143 61 98 110 200 120 110 248 231 244 210 215 241 162 116 145 159 163 160 151 146 147 150 153 151 150 150 151 155 149 142 138 128 127 146 316 273 280 305 321 323 328
212 222 179 190 184 183 214 204 189 215 236 254 220 230 228 102 78 94 106 124 130 136 141 146 150 155 159 161 162 165 167 165 161 156 148 120 65 319 296 277 279 284 290 291
225 214 118 146 39 164 193 228 264 272 285 268 238 226 232 110 107 111 114 118 128 135 139 141 144 151 155 163 171 172 168 163 159 149 128 139 144 340 315 297 284 268 279 297
297 221 165 111 123 271 272 261 148 190 228 254 255 231 217 185 189 168 157 155 145 133 135 140 146 148 150 159 162 163 158 158 155 146 171 224 265 287 303 301 289 287 290 306
273 218 167 193 205 199 185 216 213 218 228 226 263 261 43 166 165 170 177 166 156 146 148 147 145 140 132 129 139 143 145 139 149 171 191 213 262 291 301 298 285 284 288 294
211 237 232 217 171 7 212 209 193 198 237 227 255 266 23 73 114 135 147 148 144 140 140 137 134 131 132 135 140 142 144 154 184 196 203 228 258 273 281 288 289 288 287 289
184 195 235 263 282 236 251 238 226 232 248 230 230 250 69 63 86 103 124 133 135 136 138 136 134 139 145 151 155 158 171 185 206 216 222 240 252 263 275 284 288 288 287 290
324 232 215 226 251 184 226 231 217 206 220 238 234 245 241 213 160 156 146 144 142 150 148 143 147 151 152 159 167 187 202 192 205 225 245 251 259 268 277 285 283 285 286 289
233 251 255 269 283 242 241 232 218 221 224 229 247 249 246 204 192 184 157 143 144 156 160 160 165 166 165 171 183 204 209 213 232 235 247 259 267 271 277 280 280 285 286 290
219 252 279 272 258 256 260 246 229 230 236 244 262 273 270 157 125 146 151 152 173 178 174 167 167 176 185 192 210 221 217 243 249 245 257 272 278 273 273 272 278 285 286 288
209 215 237 257 259 305 257 232 219 224 227 222 244 248 253 81 151 183 161 166 175 173 170 175 187 199 205 204 241 258 268 338 309 281 276 288 291 289 282 285 284 284 285 288
204 205 227 253 260 243 240 176 197 215 231 226 241 253 174 149 86 64 98 129 148 151 159 153 162 203 199 69 23 32 25 333 304 312 316 321 315 302 296 292 284 286 289 288
215 196 216 222 247 264 251 230 179 190 242 232 220 203 99 96 59 44 51 63 76 86 92 136 134 102 89 101 88 75 17 329 324 327 330 326 314 305 299 292 288 291 293 290
220 202 214 221 236 247 239 213 356 123 257 257 181 167 144 109 151 234 59 57 51 47 55 77 77 67 75 74 89 94 349 334 325 330 325 319 309 302 297 292 292 294 294 292
187 204 218 228 238 256 221 179 111 173 252 354 116 149 145 153 186 113 62 49 47 45 41 61 73 74 62 57 84 68 354 323 329 335 325 318 314 304 296 297 301 298 296 298
192 198 208 211 227 245 147 139 173 205 68 61 62 84 103 99 82 71 61 51 43 39 43 47 56 46 38 50 64 19 330 328 343 337 325 317 313 309 311 302 298 300 300 298
204 206 208 204 217 102 130 137 108 95 87 67 69 84 102 99 89 66 55 48 43 40 35 36 49 36 24 32 46 4 335 347 346 334 323 318 319 317 313 304 302 304 301 296
208 64 230 253 249 144 116 92 70 74 79 73 88 100 105 110 99 68 46 33 30 28 32 37 41 28 8 11 16 359 346 350 341 327 321 319 321 317 315 310 305 304 304 301
250 164 233 249 237 74 146 103 92 81 80 76 66 68 88 101 95 80 57 33 30 20 24 26 27 6 352 357 354 350 351 354 341 327 321 321 318 313 312 307 300 302 289 296
235 209 219 238 208 211 218 76 80 84 80 81 80 65 64 83 94 76 53 27 25 11 10 9 1 348 341 344 342 345 347 350 340 326 323 322 320 317 315 313 314 310 311 312
Height
1497 1499 1499 1496 1496 1494 1493 1493 1493 1495 1497 1501 1501 1499 1500 1502 1505 1506 1508 1510 1512 1514 1516 1517 1519 1520 1521 1522 1523 1523 1524 1525 1526 1527 1527 1528 1527 1527 1527 1527 1527 1526 1526 1525
1497 1497 1493 1492 1492 1493 1493 1495 1494 1497 1498 1500 1499 1496 1495 1497 1498 1501 1503 1506 1508 1511 1513 1514 1516 1517 1518 1519 1520 1521 1522 1523 1524 1524 1525 1525 1526 1525 1525 1525 1525 1524 1524 1523
1493 1492 1491 1492 1493 1494 1493 1495 1495 1497 1501 1500 1500 1497 1492 1492 1494 1498 1500 1502 1504 1507 1508 1510 1512 1513 1515 1516 1517 1518 1519 1520 1521 1522 1523 1523 1523 1523 1523 1523 1522 1522 1521 1520
1490 1490 1491 1491 1492 1493 1495 1492 1493 1497 1504 1504 1502 1508 1488 1487 1491 1494 1496 1499 1501 1503 1505 1507 1508 1510 1512 1513 1515 1516 1517 1518 1519 1519 1520 1520 1520 1520 1520 1520 1519 1519 1519 1518
1489 1489 1491 1492 1492 1492 1494 1493 1494 1496 1499 1502 1499 1505 1492 1484 1489 1490 1492 1495 1497 1500 1502 1504 1506 1507 1509 1511 1512 1514 1515 1516 1516 1517 1517 1517 1518 1518 1518 1517 1517 1517 1516 1516
1490 1490 1490 1491 1492 1492 1495 1495 1496 1497 1500 1507 1495 1500 1491 1485 1483 1485 1488 1491 1494 1497 1499 1502 1504 1506 1507 1509 1510 1511 1512 1513 1514 1514 1515 1515 1515 1515 1515 1514 1514 1514 1513 1513
1490 1491 1491 1492 1494 1495 1495 1501 1508 1510 1510 1501 1487 1490 1489 1480 1478 1480 1484 1488 1491 1494 1497 1499 1501 1503 1504 1505 1507 1508 1509 1510 1511 1511 1512 1512 1512 1512 1512 1511 1511 1511 1510 1509
1490 1492 1490 1491 1492 1495 1496 1496 1506 1510 1504 1495 1491 1492 1485 1480 1480 1481 1484 1486 1489 1492 1494 1496 1498 1500 1501 1503 1504 1505 1506 1507 1508 1508 1509 1509 1509 1509 1508 1508 1508 1507 1507 1506
1485 1487 1488 1488 1490 1491 1494 1496 1492 1498 1495 1496 1490 1484 1485 1481 1482 1483 1484 1486 1488 1490 1492 1494 1496 1498 1499 1500 1501 1502 1503 1504 1505 1505 1505 1506 1506 1506 1505 1505 1504 1504 1503 1503
1482 1487 1490 1491 1492 1492 1492 1491 1497 1501 1503 1498 1483 1480 1482 1483 1482 1483 1484 1485 1487 1489 1491 1493 1494 1496 1497 1498 1499 1500 1501 1501 1502 1502 1502 1502 1502 1502 1502 1501 1501 1500 1499 1499
1482 1488 1493 1493 1491 1490 1493 1493 1492 1493 1492 1496 1491 1484 1473 1474 1475 1479 1481 1483 1485 1487 1489 1491 1492 1493 1495 1496 1497 1497 1498 1498 1498 1499 1499 1499 1499 1499 1498 1498 1497 1496 1495 1494
1482 1487 1491 1489 1486 1486 1486 1486 1489 1496 1493 1489 1491 1487 1475 1473 1474 1477 1480 1482 1484 1486 1488 1489 1491 1492 1492 1493 1494 1494 1494 1495 1495 1495 1495 1495 1495 1495 1494 1494 1493 1492 1491 1490
1483 1487 1492 1490 1491 1491 1489 1485 1484 1486 1489 1490 1491 1485 1477 1475 1476 1477 1479 1481 1483 1484 1486 1487 1488 1489 1490 1490 1491 1491 1491 1491 1491 1492 1492 1491 1491 1491 1490 1490 1489 1488 1487 1486
1483 1485 1486 1484 1478 1483 1486 1484 1483 1486 1492 1488 1480 1475 1476 1476 1477 1477 1478 1480 1481 1483 1484 1485 1486 1487 1487 1488 1488 1488 1488 1488 1488 1488 1488 1488 1487 1487 1487 1486 1485 1484 1483 1482
1484 1485 1480 1477 1474 1477 1478 1478 1479 1481 1479 1480 1472 1470 1470 1472 1474 1475 1477 1478 1480 1481 1482 1483 1483 1484 1485 1485 1485 1485 1485 1485 1485 1485 1484 1484 1484 1483 1483 1482 1481 1480 1479 1478
1483 1484 1481 1480 1475 1475 1476 1473 1474 1474 1474 1472 1470 1470 1468 1469 1471 1473 1475 1476 1477 1479 1480 1480 1481 1482 1482 1482 1482 1482 1482 1481 1481 1481 1481 1480 1480 1479 1479 1478 1477 1476 1475 1474
1482 1484 1484 1481 1475 1476 1477 1469 1468 1469 1468 1469 1470 1469 1468 1469 1471 1472 1473 1474 1475 1476 1477 1478 1478 1479 1479 1479 1479 1478 1478 1478 1478 1478 1477 1477 1476 1475 1475 1474 1473 1471 1470 1469
1481 1482 1484 1482 1480 1484 1465 1461 1461 1463 1464 1465 1465 1465 1466 1468 1470 1471 1472 1473 1474 1474 1475 1475 1476 1476 1476 1476 1476 1476 1476 1475 1475 1474 1474 1473 1472 1472 1471 1470 1468 1467 1466 1465
1477 1480 1482 1481 1480 1469 1464 1461 1461 1463 1464 1463 1464 1464 1466 1467 1468 1470 1471 1471 1472 1473 1473 1473 1473 1473 1473 1473 1473 1473 1472 1472 1471 1471 1470 1469 1469 1468 1467 1466 1465 1464 1462 1461
1476 1478 1481 1478 1477 1470 1461 1461 1459 1462 1466 1462 1462 1463 1465 1466 1471 1471 1470 1470 1470 1470 1471 1471 1471 1471 1470 1470 1470 1470 1469 1469 1468 1468 1467 1467 1466 1465 1463 1462 1461 1460 1459 1457
1477 1478 1478 1476 1473 1463 1462 1461 1461 1468 1465 1462 1461 1462 1464 1466 1468 1469 1468 1468 1469 1469 1469 1469 1468 1468 1468 1468 1468 1467 1466 1466 1466 1465 1464 1463 1462 1461 1460 1459 1458 1456 1455 1453
1469 1472 1472 1471 1471 1466 1462 1462 1464 1464 1462 1462 1462 1462 1464 1465 1466 1467 1467 1467 1467 1467 1467 1467 1466 1466 1466 1465 1465 1464 1464 1464 1463 1462 1461 1460 1459 1458 1457 1456 1454 1453 1451 1449
1462 1463 1462 1463 1464 1461 1460 1460 1461 1461 1462 1462 1462 1463 1463 1464 1465 1466 1466 1466 1466 1466 1465 1465 1465 1464 1464 1464 1463 1462 1462 1461 1460 1459 1458 1457 1456 1455 1454 1452 1451 1449 1448 1446
1460 1460 1461 1461 1460 1460 1460 1460 1460 1461 1461 1461 1462 1462 1463 1463 1464 1464 1464 1464 1464 1464 1464 1463 1463 1462 1462 1462 1461 1461 1460 1459 1458 1456 1455 1454 1453 1452 1451 1449 1448 1446 1445 1443
1459 1460 1461 1461 1460 1460 1460 1460 1460 1460 1461 1461 1461 1462 1462 1462 1463 1463 1463 1463 1462 1462 1462 1462 1461 1461 1460 1460 1459 1459 1458 1456 1455 1454 1453 1451 1450 1449 1448 1446 1445 1443 1442 1441
1460 1460 1461 1459 1458 1459 1460 1460 1460 1459 1460 1460 1460 1461 1461 1461 1461 1461 1461 1461 1461 1461 1460 1460 1460 1459 1458 1458 1457 1456 1455 1454 1453 1451 1450 1449 1448 1446 1445 1443 1442 1440 1439 1437